Location: Dompnac
(44.5644°N, 4.1026°E)
Time: 10:37:10
(UTC+00:00)

Cosmos 2026 Rocket - Pass Details

Date: 21 January 2021
Orbit: 940 x 1000 km, 82.9° (Epoch: 26 February)

Event Time Altitude Azimuth Distance (km) Brightness Sun altitude
Rises 06:23:59 0° 348° (NNW) 3,707 6.7 -8.8°
Reaches altitude 10° 06:26:32 10° 345° (NNW) 2,761 6.0 -8.4°
Maximum altitude 06:32:44 60° 268° (W) 1,138 4.1 -7.4°
Drops below altitude 10° 06:38:57 10° 190° (S) 2,762 6.5 -6.3°
Sets 06:41:31 0° 187° (S) 3,708 7.3 -5.9°
